Theta_e
332 331 331 331 331 330 330 328 326 325 324 323 323 322 322 322 323 324 324 324 324 323 322 321 321 321 322 322 323 324 325 325 325 325 326 327 327 327 326 327 328 329 329 329 330 330 329 329 329 329 329 328 328 328 327 327 328 328 329 329 329 329 330
331 330 330 330 330 329 328 325 323 322 322 322 322 321 322 322 323 324 324 324 323 322 322 321 321 321 322 323 324 325 325 325 325 325 327 327 327 328 327 327 326 327 328 329 329 330 330 329 328 329 329 329 329 328 328 327 327 327 327 328 328 328 329
330 330 330 329 328 327 323 321 321 321 321 320 320 321 322 323 324 324 323 323 322 321 321 321 321 322 322 323 325 326 327 326 325 326 326 327 327 327 327 327 326 326 327 327 328 329 329 329 329 329 329 330 329 328 327 327 327 326 325 327 328 328 328
330 329 328 326 325 323 321 320 320 320 319 319 320 322 323 324 323 323 322 321 321 321 321 321 321 322 322 323 325 327 328 327 326 326 326 326 327 327 327 327 326 326 327 327 328 329 329 329 329 328 328 329 329 328 327 327 328 328 326 326 327 328 327
330 328 326 324 322 321 321 320 319 318 319 319 321 322 323 323 323 322 322 321 321 321 321 321 321 322 323 324 325 327 327 327 327 327 327 326 326 326 327 327 327 326 326 327 327 328 328 328 328 329 329 329 329 329 328 328 329 329 329 327 327 327 326
329 327 325 323 321 320 320 319 319 319 319 320 322 323 323 323 322 322 321 321 321 322 321 321 321 323 324 323 325 326 325 325 326 326 327 327 327 327 327 327 327 327 327 327 327 327 327 328 328 328 329 329 329 330 329 329 330 330 330 329 327 327 326
329 326 324 322 321 321 319 319 320 320 320 321 322 323 323 323 322 322 322 322 322 321 321 322 323 323 323 323 325 325 324 324 325 326 326 326 327 327 327 327 327 327 327 327 327 327 327 327 328 328 328 328 328 329 329 329 330 330 330 329 328 328 327
328 324 322 321 320 319 318 320 321 321 321 322 323 323 323 323 323 322 322 322 322 321 322 323 323 323 323 324 325 325 325 326 326 326 325 324 325 326 326 326 326 327 327 327 327 327 327 327 328 328 328 328 328 329 329 329 329 329 330 330 329 328 328
325 323 321 321 319 318 319 321 322 321 322 322 323 323 323 323 323 322 322 322 322 322 323 323 323 323 324 325 325 325 325 326 327 326 325 324 325 325 325 325 325 325 326 327 327 327 327 327 328 329 328 329 329 329 329 329 329 328 329 330 329 329 327
323 322 321 319 319 320 321 322 322 322 321 322 322 323 323 323 323 322 323 323 322 322 323 323 323 323 324 324 325 324 324 325 326 326 325 325 325 325 325 325 324 323 324 326 327 327 327 328 328 328 328 329 329 329 329 329 329 329 329 329 329 328 326
321 321 320 319 320 321 321 321 321 320 320 321 322 323 323 323 323 323 323 323 323 323 323 324 324 324 324 324 324 325 324 324 325 325 325 325 325 326 326 326 324 323 323 324 325 326 326 327 328 328 328 328 328 328 329 329 329 329 329 329 328 327 326
321 320 320 321 321 321 320 320 320 320 320 321 322 322 322 322 323 323 323 323 323 323 323 323 324 323 323 323 324 325 325 324 325 325 324 324 325 325 325 326 326 324 323 323 325 325 325 326 327 328 328 328 328 328 328 329 329 328 328 328 327 325 325
319 319 321 321 321 320 320 320 320 320 320 321 321 321 321 322 322 322 322 323 323 323 322 322 322 322 322 323 323 324 324 324 324 324 324 324 325 325 325 326 326 326 325 325 326 326 326 326 326 327 327 327 327 328 328 328 329 329 328 328 327 325 325
319 320 321 321 320 320 320 320 320 319 320 320 321 321 321 321 321 321 322 322 322 322 321 321 321 321 321 322 322 323 323 323 323 323 323 324 324 325 325 325 326 326 326 326 326 326 326 325 325 325 324 324 324 325 327 328 328 329 328 328 328 327 327
320 320 321 321 320 320 320 319 319 319 319 320 321 321 321 320 320 321 322 322 321 320 320 320 320 320 320 320 321 322 322 321 321 321 322 323 323 324 324 325 325 326 326 326 326 326 326 324 324 323 323 323 322 322 325 328 328 328 328 328 328 328 328
320 320 321 320 320 319 319 319 318 318 319 320 321 321 321 320 320 321 321 320 319 318 317 318 318 318 317 318 318 319 319 319 319 320 320 321 321 322 323 323 324 324 325 325 326 326 326 326 325 323 323 323 322 321 324 326 327 328 327 327 327 327 326
321 321 320 319 318 318 318 318 319 319 319 320 320 320 320 319 319 320 319 318 317 316 316 316 317 317 316 315 315 315 316 317 318 319 320 320 320 321 321 322 322 322 323 323 324 325 326 326 326 324 323 324 323 322 323 324 325 325 324 324 323 322 321
321 319 318 318 318 318 319 319 319 319 320 320 320 319 319 319 318 318 317 317 316 316 315 315 315 316 315 314 314 314 315 316 317 319 319 320 320 320 320 320 320 321 321 322 323 324 325 325 325 325 325 325 324 324 323 324 324 324 324 323 322 322 322
319 318 317 317 318 318 319 318 318 318 319 319 319 319 318 318 317 317 317 316 316 316 315 314 314 314 314 314 314 314 315 317 318 318 319 319 319 319 319 318 318 318 319 320 321 321 323 324 324 325 325 325 325 324 324 323 324 324 325 324 324 324 323
317 317 317 318 318 318 317 316 317 317 318 319 319 318 318 317 317 317 317 316 316 316 315 314 314 314 315 315 315 315 315 316 317 318 318 318 318 317 317 317 316 316 317 317 317 318 319 321 322 323 324 325 325 325 324 324 324 324 324 324 324 324 323
316 317 317 317 317 316 315 315 316 317 317 317 317 317 317 317 316 316 316 316 315 315 314 314 314 315 315 315 315 315 314 314 315 316 317 317 316 316 316 316 315 315 316 316 316 316 316 317 318 320 321 323 323 324 324 324 324 323 323 324 323 323 323
316 316 316 316 315 315 315 315 316 316 316 316 316 316 315 315 315 315 315 314 314 314 314 313 313 314 314 314 314 314 314 313 314 315 316 315 315 315 315 315 315 315 315 316 315 315 315 315 315 316 318 319 320 321 322 322 322 322 322 322 322 322 323
316 316 315 315 315 315 315 315 315 315 315 315 315 314 314 314 314 314 314 313 313 313 313 312 312 312 312 312 313 313 313 313 313 313 313 314 314 313 313 314 314 314 314 315 315 315 314 314 314 315 315 316 317 318 319 319 320 321 321 321 321 321 321
316 315 315 315 314 314 314 314 314 314 314 314 314 313 313 313 313 313 313 313 312 312 311 311 311 311 311 311 311 312 312 312 312 312 312 312 312 312 312 311 312 312 312 313 314 314 314 314 314 314 315 315 315 316 316 316 316 317 317 317 318 318 318
315 315 314 314 314 314 314 314 314 313 313 313 313 313 313 312 312 312 312 312 311 311 310 309 309 310 310 310 310 310 311 311 311 311 310 311 311 310 310 310 310 310 311 311 312 313 314 314 314 314 314 314 314 314 314 313 313 313 313 313 314 314 314
314 314 314 314 314 313 313 313 313 313 313 312 312 312 312 311 311 311 310 310 309 309 308 307 307 308 308 308 308 309 309 309 309 309 308 308 308 308 309 309 309 309 309 310 310 312 313 312 312 312 313 313 312 312 311 311 310 311 311 311 311 311 311
314 313 313 313 313 313 313 313 313 312 312 312 311 311 310 310 309 309 308 307 307 305 305 304 305 305 305 305 306 306 307 307 306 306 306 305 305 305 305 305 306 306 307 307 308 310 311 311 311 311 311 311 311 310 310 309 308 308 309 309 309 309 309
313 313 313 313 313 313 313 312 312 311 311 310 309 309 308 307 306 305 304 303 303 301 301 301 301 301 301 302 302 303 303 303 302 302 301 301 301 300 301 301 301 302 303 304 305 307 308 309 309 310 309 309 309 308 308 308 307 307 307 307 307 307 307
312 312 312 312 312 312 311 311 310 309 308 308 307 305 304 303 302 301 300 299 299 298 298 298 298 298 298 298 298 298 299 299 298 298 298 298 298 298 298 298 299 299 299 300 301 303 304 306 307 307 307 307 307 306 306 306 306 306 306 306 306 306 306
312 311 311 311 311 310 310 309 308 306 306 305 303 302 301 299 298 298 297 297 297 296 296 296 296 296 296 296 296 296 296 296 297 297 297 297 297 297 298 298 298 298 298 298 299 299 300 301 302 303 304 304 304 304 304 304 305 305 305 305 305 305 305
311 311 310 310 310 309 308 306 304 304 303 302 300 299 298 297 296 296 296 296 295 295 295 295 295 295 295 295 295 295 295 295 295 296 296 296 296 297 297 297 297 297 298 298 298 298 298 298 299 300 301 302 302 303 303 303 304 304 304 304 304 304 304
310 309 309 308 307 306 304 303 302 301 300 299 298 297 296 296 296 295 295 295 295 295 294 294 294 294 295 295 295 295 295 295 295 295 295 295 295 295 296 296 297 297 297 297 297 297 297 297 298 299 299 300 301 301 301 301 302 302 303 303 303 303 303
308 308 307 305 304 303 302 301 300 299 298 297 296 296 295 295 295 295 294 294 294 294 294 294 294 294 294 294 295 295 295 295 294 295 294 294 294 295 295 295 296 296 296 296 296 297 297 297 297 298 298 299 299 299 299 299 300 300 300 301 302 302 302
306 304 303 302 301 300 299 299 298 297 296 296 295 295 295 295 295 295 294 294 294 294 294 294 294 294 294 294 294 294 294 294 294 294 294 294 294 294 294 294 295 295 296 296 296 296 296 297 297 297 298 298 298 298 298 298 298 298 298 299 300 301 301
302 301 300 300 299 298 297 297 296 296 295 295 295 295 295 294 294 294 294 294 294 294 294 294 294 294 294 294 294 294 294 294 294 294 294 294 294 294 294 294 295 295 295 295 295 296 296 296 296 297 297 297 297 297 297 298 298 298 298 299 300 300 301
300 299 298 298 297 297 296 296 295 295 295 295 294 294 294 294 294 294 294 294 294 294 294 294 294 294 294 294 294 294 294 294 294 294 294 294 293 294 294 294 294 294 294 294 295 295 296 296 296 296 296 297 297 297 297 297 298 298 298 299 299 300 300
298 298 297 296 296 296 295 295 295 294 294 294 294 294 294 294 294 294 294 294 293 293 294 293 293 293 294 294 294 293 294 294 294 294 294 293 293 293 294 294 294 294 294 294 294 295 295 295 296 296 296 296 296 296 297 297 297 298 298 298 299 299 299
Wind_Speed
2 5 8 9 9 10 12 13 14 14 14 14 15 15 16 16 16 16 18 19 20 21 23 23 24 25 25 26 24 21 18 18 20 20 21 22 23 25 24 24 27 25 23 25 25 22 22 22 21 20 20 20 21 22 22 23 24 27 29 30 30 29 31
5 8 10 11 11 12 12 13 13 14 14 14 15 15 15 15 15 16 18 19 20 20 22 22 23 24 24 24 23 20 17 17 19 19 20 22 22 23 22 23 25 25 24 22 22 22 23 24 24 22 20 18 20 22 23 24 24 25 27 30 32 31 30
7 9 10 11 12 12 12 12 13 13 14 13 13 13 13 14 15 16 17 18 19 19 20 22 22 23 23 22 20 18 17 18 19 19 19 21 21 22 21 21 21 23 24 19 16 18 21 24 26 25 21 20 22 23 23 24 25 25 27 29 31 32 32
7 8 9 11 12 12 12 12 13 13 12 12 11 11 12 13 14 15 16 17 18 19 20 21 22 21 21 21 19 15 15 16 17 18 19 20 21 20 19 18 19 19 20 20 18 17 19 22 25 26 24 22 23 25 24 24 24 25 27 28 29 32 33
8 8 10 12 12 12 13 14 14 13 12 11 10 11 12 13 14 15 16 17 18 18 19 20 20 20 20 20 19 15 14 14 15 16 17 19 20 20 18 17 17 17 17 20 21 20 20 22 23 25 26 23 23 24 24 23 23 24 26 27 27 29 32
8 9 11 12 12 13 13 14 14 14 14 12 11 12 14 14 15 16 17 17 17 17 18 18 19 19 19 19 18 16 16 16 16 16 16 16 17 18 18 18 17 17 17 19 21 21 22 22 23 25 26 25 24 25 26 25 24 24 25 26 27 28 29
9 10 11 12 12 13 13 13 13 13 13 12 12 14 15 15 15 16 17 17 16 16 17 17 17 18 18 18 18 17 16 16 15 16 16 14 14 15 16 18 18 18 18 18 19 19 19 20 21 23 23 24 25 25 27 27 25 25 25 25 27 29 29
10 11 11 12 12 12 12 12 11 11 11 11 13 14 14 14 15 16 16 15 15 15 16 16 16 17 17 18 17 16 16 16 15 14 15 15 14 15 15 16 17 17 16 17 18 19 18 18 20 20 21 22 24 24 25 26 27 27 26 26 27 29 29
10 10 11 11 11 11 11 11 10 11 12 12 13 13 13 14 15 14 14 13 14 14 14 15 15 16 17 17 17 17 16 16 15 13 14 16 15 15 15 16 17 17 15 15 15 16 17 17 18 19 19 21 23 23 22 22 26 28 26 27 28 28 28
9 9 10 9 9 9 10 9 9 11 12 12 12 12 12 14 14 13 13 12 13 13 14 15 15 15 16 17 18 18 17 17 16 14 14 15 15 16 15 16 17 17 16 15 14 14 14 16 18 18 19 20 22 24 24 21 24 27 25 25 26 27 27
8 8 8 8 7 8 8 8 9 11 12 11 11 11 12 12 12 12 12 12 13 14 14 14 15 15 16 18 19 18 17 17 16 15 14 15 16 17 17 17 16 16 16 16 15 15 15 14 15 16 17 18 20 23 25 25 27 26 24 24 24 24 25
7 7 7 6 6 6 7 8 10 11 11 10 10 11 11 10 10 11 12 13 14 14 14 14 14 15 16 17 18 17 16 16 16 15 15 16 17 18 19 19 17 16 16 16 17 17 16 15 14 13 13 15 17 21 23 27 30 28 24 24 23 22 22
7 6 5 4 5 6 7 9 10 10 9 9 10 11 10 10 10 11 12 13 14 14 14 15 15 15 16 17 17 17 17 17 16 16 16 16 16 17 18 19 18 17 17 16 18 18 16 15 14 14 13 13 15 18 22 26 29 30 27 25 24 23 22
5 4 3 4 5 7 8 9 10 9 9 10 11 11 11 11 11 11 12 13 13 14 14 15 15 16 16 17 17 18 18 18 18 18 18 18 18 18 17 18 17 17 17 17 19 19 16 14 14 15 15 14 14 15 19 25 28 30 29 27 25 24 23
2 2 3 4 5 7 8 9 10 10 11 11 11 11 11 12 12 12 12 12 13 14 15 16 16 17 18 19 19 19 19 20 20 20 20 20 19 19 19 19 19 18 18 17 18 18 17 16 16 16 16 14 14 14 14 20 24 26 27 27 25 22 20
1 2 3 5 6 6 8 10 12 12 12 12 12 11 11 12 12 11 11 11 12 13 14 16 16 17 19 20 20 20 20 20 20 20 20 21 21 21 21 21 22 22 20 19 18 18 18 19 18 17 16 15 14 13 12 13 16 18 21 21 18 15 13
1 3 4 5 6 9 12 13 13 13 12 12 11 11 11 11 11 11 11 11 12 13 13 14 15 16 17 18 19 20 19 20 20 20 21 22 23 23 23 23 24 23 23 22 20 19 18 19 18 17 16 16 14 13 13 12 12 12 14 14 12 11 11
3 4 5 7 10 12 13 12 11 11 11 10 11 11 10 10 10 10 11 11 12 12 13 13 14 15 16 18 19 19 19 20 20 20 21 22 23 23 23 25 25 25 25 24 23 22 20 19 18 18 17 17 15 14 13 13 13 12 12 12 13 13 12
4 5 8 11 12 12 11 10 10 10 10 9 10 10 10 10 10 10 11 11 11 12 12 13 14 16 18 19 20 20 20 20 20 20 20 21 22 23 25 27 28 29 29 28 27 25 23 21 20 19 18 18 16 14 12 12 13 12 10 12 14 15 13
6 10 12 13 12 11 10 10 10 10 9 9 9 9 9 10 10 10 11 11 11 12 13 15 17 18 19 20 20 19 19 19 20 20 20 21 23 24 26 28 29 31 32 31 31 30 28 26 24 22 20 19 17 14 12 12 12 12 10 10 12 13 13
12 14 14 12 11 10 10 9 9 9 9 9 10 10 10 11 11 12 12 12 12 13 15 17 19 20 21 21 20 19 19 19 20 20 20 21 23 24 25 26 28 30 31 31 31 33 33 31 30 27 25 23 20 18 17 14 11 11 11 11 12 12 12
15 15 13 11 10 9 9 9 9 9 9 10 10 11 11 12 13 13 13 13 13 14 15 18 20 21 21 21 21 20 20 19 19 19 19 20 22 23 24 25 26 27 27 28 29 30 31 31 32 32 30 28 25 24 23 20 16 13 12 13 15 14 13
15 14 12 11 10 9 9 9 9 9 9 10 10 11 11 11 12 13 13 13 14 14 17 19 20 20 20 21 21 20 20 20 19 19 19 20 21 22 23 24 24 25 26 26 27 28 28 29 30 31 31 30 29 28 28 27 25 22 19 18 18 17 17
15 13 12 10 9 9 9 9 9 9 9 9 9 10 10 10 11 12 13 13 14 16 18 20 19 19 19 19 19 19 19 19 19 20 20 20 21 22 23 23 24 25 27 27 27 27 27 27 27 28 29 29 30 31 32 32 32 30 27 25 24 24 24
14 12 11 10 9 9 8 8 8 8 8 9 9 9 10 11 12 12 13 13 14 16 19 19 18 18 18 18 18 18 18 18 19 20 21 21 22 23 24 25 25 26 28 29 28 26 26 27 26 26 27 29 31 32 33 34 34 33 32 30 29 29 30
12 11 10 9 9 9 8 8 8 9 9 9 9 9 10 11 12 13 13 14 15 17 19 18 18 18 18 18 18 18 18 19 20 22 23 23 24 24 25 25 26 26 27 28 28 26 24 25 25 25 25 27 29 31 33 34 34 32 31 30 30 30 29
12 11 11 10 10 9 9 9 10 10 10 9 9 10 11 12 13 14 14 15 16 18 19 19 19 19 19 19 20 20 20 21 22 23 25 25 26 27 28 27 27 27 27 27 27 25 23 23 23 23 24 26 28 29 30 32 33 32 31 30 29 28 27
12 12 11 11 10 10 10 10 10 10 9 9 10 11 12 13 14 15 16 16 17 19 20 20 19 20 20 20 20 21 21 22 24 25 26 27 28 29 30 30 30 30 29 29 27 25 23 22 21 22 24 26 27 28 30 31 31 30 29 29 27 26 26
12 12 11 11 10 10 10 10 10 9 9 10 12 13 14 15 16 16 16 16 17 19 19 19 18 18 19 19 20 21 22 23 24 26 27 28 29 30 30 31 32 32 32 31 29 27 25 23 22 23 24 25 26 29 30 29 28 27 26 26 25 24 23
12 12 11 11 10 11 11 11 11 11 11 12 13 13 14 15 15 15 15 15 16 17 18 17 17 17 17 18 19 21 22 23 25 26 27 28 28 29 30 30 31 31 32 31 30 29 28 27 26 26 26 25 26 29 30 27 25 25 25 24 24 23 22
11 12 12 11 11 12 12 12 12 12 11 12 13 13 14 14 14 14 15 16 16 17 18 18 18 18 18 19 20 22 23 23 25 26 27 27 27 28 28 29 29 30 30 29 29 30 30 30 30 31 30 28 27 28 28 27 25 25 24 23 23 23 24
11 12 12 13 13 13 13 13 12 11 11 12 12 13 13 13 14 15 16 17 18 18 20 20 20 20 21 21 22 23 24 25 26 26 27 27 27 27 28 28 29 28 27 27 27 28 30 30 31 32 32 31 29 28 27 26 26 26 25 24 24 25 26
13 13 14 15 15 14 13 13 12 11 11 11 12 13 13 13 14 16 17 18 19 20 20 21 21 21 22 23 23 24 26 26 27 26 26 27 27 28 28 28 28 27 26 26 26 27 28 30 31 32 32 32 31 28 27 28 29 29 29 27 24 24 26
14 15 15 15 15 15 13 12 11 10 11 11 12 12 13 13 15 17 18 19 20 21 21 22 22 22 23 24 24 25 27 27 27 26 27 27 27 28 28 27 27 26 25 25 26 26 27 28 29 31 31 30 29 27 28 31 32 34 35 29 23 23 25
15 16 15 14 14 14 13 11 10 10 10 11 12 13 14 15 16 18 19 20 21 22 22 23 23 23 24 24 25 26 27 27 26 26 26 27 27 26 26 25 24 24 24 25 25 26 26 27 29 30 29 27 27 28 30 33 34 37 37 31 24 24 26
16 16 15 14 13 13 13 11 11 11 10 11 12 14 15 16 16 18 19 20 21 22 22 23 23 23 24 24 25 26 26 26 25 25 26 26 25 25 24 23 23 23 24 25 25 26 27 28 29 29 28 28 28 30 32 33 35 38 39 35 30 28 27
16 15 14 13 12 12 12 11 11 11 11 11 13 15 16 16 16 17 18 20 21 21 22 22 22 23 23 23 24 25 25 24 24 24 24 24 24 22 22 22 22 23 24 25 26 26 27 28 29 29 28 29 31 32 34 35 36 37 38 38 37 34 29
Wind_Direction
340 340 339 342 340 337 336 333 329 329 329 328 326 326 327 328 329 329 330 331 330 329 329 330 331 331 330 327 322 314 306 302 298 293 292 291 290 291 286 281 285 286 276 264 258 262 269 272 273 273 273 269 260 257 255 252 247 245 245 244 242 240 239
333 337 337 334 327 327 330 329 326 324 325 323 323 325 328 332 334 333 333 332 331 331 332 334 334 335 334 331 328 325 318 308 302 298 295 294 294 297 295 288 283 283 287 274 255 260 269 269 270 270 268 264 258 256 255 255 255 250 249 248 246 245 243
332 332 329 322 319 325 327 323 319 321 324 325 327 329 334 339 337 336 335 334 335 336 337 337 337 338 338 339 338 330 320 312 308 304 298 299 300 299 298 296 287 280 287 289 271 266 267 263 266 269 266 258 257 262 261 260 260 254 251 251 248 245 244
329 328 324 318 320 326 324 319 321 326 331 332 332 336 342 344 341 340 340 339 340 341 341 340 339 340 342 345 344 333 321 314 313 311 305 303 305 305 303 300 296 285 281 284 281 278 273 267 268 270 269 263 260 265 267 268 266 259 254 252 249 246 244
331 329 322 316 320 324 322 323 327 333 339 340 340 345 350 350 346 345 344 344 346 345 344 342 341 342 343 346 345 339 334 330 327 323 313 306 304 306 309 304 299 292 283 279 275 273 274 274 274 271 269 265 261 265 269 270 269 265 256 250 251 248 245
328 321 314 314 319 321 322 327 332 338 345 346 348 353 356 353 348 347 348 349 349 349 347 345 344 344 344 345 345 346 349 349 345 339 329 320 310 307 309 308 304 296 291 286 278 271 269 272 274 273 272 269 264 266 271 271 268 268 260 250 249 249 246
318 311 312 318 321 321 326 334 336 341 348 348 350 357 356 351 349 350 352 353 354 353 351 348 347 345 345 346 347 350 354 354 351 347 344 341 331 323 320 318 313 305 297 292 288 281 273 270 271 273 276 275 270 270 272 270 267 265 259 251 248 249 248
312 312 319 323 322 323 334 345 343 344 352 352 353 356 353 350 354 356 356 358 359 358 356 352 350 348 349 351 352 352 353 352 352 349 349 351 349 344 340 335 329 321 309 297 293 289 280 273 272 271 273 274 273 271 271 271 269 264 256 251 250 249 248
310 314 317 318 321 330 345 353 348 348 358 359 354 353 352 354 359 0 1 4 5 5 3 359 356 354 354 356 356 357 357 356 357 355 352 354 354 351 349 344 339 337 330 317 305 296 287 281 278 277 277 276 273 270 269 267 266 265 259 250 248 245 243
306 309 310 317 331 346 355 354 350 353 359 359 357 358 360 4 6 8 12 15 14 14 10 6 2 359 358 358 358 359 1 3 3 2 359 357 356 354 350 343 342 344 341 332 325 316 303 291 285 283 280 276 272 270 269 263 261 265 258 245 242 241 240
300 302 313 332 351 360 357 352 354 359 0 1 5 8 10 15 19 23 25 25 23 21 16 12 8 5 3 1 1 2 3 4 6 5 2 360 358 357 354 350 346 344 341 339 338 335 325 310 295 289 285 280 276 273 272 268 266 264 253 243 245 247 245
301 309 327 348 360 359 356 359 2 1 3 9 15 18 23 30 34 33 31 30 30 27 22 18 14 11 10 7 5 7 6 5 4 3 360 357 357 357 357 358 356 349 344 344 342 337 332 326 316 306 299 291 285 281 278 273 268 263 255 250 253 253 252
307 319 341 357 357 358 1 4 4 4 15 29 32 33 37 41 38 34 34 35 34 31 27 24 19 15 14 13 11 11 9 6 4 2 1 1 2 3 359 360 2 358 353 351 348 343 337 333 329 324 317 309 299 289 282 276 270 266 260 254 254 255 255
305 325 355 3 2 5 6 9 14 22 38 51 50 46 46 44 41 38 39 39 36 33 31 26 20 17 17 18 17 15 13 12 12 11 11 10 12 12 8 4 3 0 357 354 352 350 345 339 335 333 328 323 318 308 290 277 271 268 260 250 249 252 254
306 342 4 11 13 12 14 28 42 47 54 58 56 54 52 47 46 45 43 41 38 36 34 30 26 25 26 27 25 23 22 21 22 21 18 16 16 17 17 14 11 8 4 358 355 355 352 344 339 338 337 332 328 327 312 287 274 268 262 254 251 257 262
336 26 31 25 24 33 49 60 62 60 60 60 57 57 55 50 47 46 44 44 42 38 36 36 34 33 32 30 28 27 27 25 24 24 22 21 22 22 22 22 21 19 16 10 5 2 357 352 347 340 338 340 335 334 338 320 294 280 274 268 265 272 281
61 55 47 42 51 68 76 74 69 67 63 58 56 54 53 49 46 46 46 44 39 34 33 34 34 33 31 27 24 23 23 22 23 24 26 27 28 28 28 28 28 26 23 21 17 11 5 1 358 350 341 340 341 340 347 346 329 309 297 292 291 291 292
87 68 64 78 86 87 84 79 74 70 62 57 57 54 51 49 44 41 36 31 29 25 24 25 27 29 27 24 22 21 20 22 24 27 30 32 33 35 36 36 34 32 28 26 24 20 16 11 6 1 352 343 340 340 342 341 336 323 306 304 308 303 294
93 88 94 98 97 92 88 82 76 70 62 58 57 52 48 43 36 30 25 23 23 20 18 22 26 28 27 27 28 27 27 30 31 31 34 39 40 40 41 40 37 36 33 32 31 28 26 24 19 14 8 360 351 345 342 342 344 337 314 298 297 297 292
107 108 107 103 99 94 88 81 73 66 61 56 52 46 39 31 26 24 21 21 23 25 27 31 33 32 31 32 32 33 35 36 37 39 43 47 46 43 42 41 38 37 34 33 33 31 29 29 27 25 23 19 13 4 356 349 351 353 342 319 304 296 289
116 112 108 104 98 92 85 77 71 66 60 53 48 42 35 33 32 30 30 32 35 38 40 40 38 35 32 31 30 32 35 37 39 43 46 47 45 41 40 40 40 39 36 33 33 31 29 28 28 29 29 27 27 25 20 12 3 358 353 350 345 330 308
118 113 108 104 98 90 82 77 73 68 61 54 50 47 44 44 44 45 47 49 49 47 45 42 38 33 29 28 26 25 27 30 35 39 40 39 37 37 37 38 41 42 39 36 33 31 29 29 28 30 31 32 33 36 37 35 29 20 12 10 7 358 344
117 112 108 103 97 89 83 79 75 70 65 60 57 55 54 53 53 54 55 54 50 48 46 43 38 32 28 27 25 23 23 24 28 30 31 31 30 32 34 34 37 39 38 36 34 30 29 31 32 33 33 35 37 40 44 45 42 39 34 30 24 19 16
115 112 108 102 96 91 87 83 79 74 70 66 63 62 59 58 57 54 52 49 46 46 46 43 38 32 30 28 25 25 25 25 26 28 29 31 31 31 31 30 31 32 32 32 34 32 29 30 33 35 36 37 39 42 44 46 46 45 42 41 37 33 30
113 110 107 103 99 95 91 87 82 78 75 71 69 66 61 58 57 53 50 48 46 48 48 43 37 34 32 30 29 28 30 31 32 33 34 35 35 32 31 32 33 33 32 32 32 33 32 30 30 34 38 40 41 42 43 43 43 42 40 40 39 38 35
115 112 110 106 102 98 94 92 89 84 80 76 71 66 62 59 57 54 53 52 51 52 50 44 38 36 34 34 33 33 36 38 38 39 40 39 39 37 36 35 35 35 35 34 33 34 35 34 30 29 34 39 41 42 40 38 37 36 35 34 35 36 34
120 116 114 110 106 104 101 97 92 87 83 78 71 65 62 60 59 59 59 59 59 58 55 48 43 40 39 39 39 40 43 45 46 46 45 45 44 43 41 40 37 35 34 34 33 34 36 40 39 35 35 38 39 38 34 31 30 30 30 30 32 35 33
125 120 118 116 113 110 104 97 92 88 84 77 70 68 68 67 68 68 67 65 65 64 61 55 49 46 45 45 45 46 48 50 52 52 51 50 49 47 45 43 41 38 36 34 32 30 32 37 41 42 41 40 39 36 32 30 27 27 28 28 29 31 28
129 124 121 121 117 110 103 97 94 89 84 80 78 78 78 77 76 74 71 68 66 67 65 59 53 50 48 47 48 50 51 52 53 52 51 50 48 46 44 42 40 38 36 35 32 30 31 32 33 36 37 36 35 35 35 32 28 26 26 25 24 25 23
131 127 127 125 117 110 104 99 96 91 89 89 88 86 84 81 78 75 71 67 64 65 64 58 53 51 47 46 49 51 52 52 53 53 51 49 48 45 42 39 37 35 33 32 31 30 33 35 36 37 36 33 33 33 31 27 24 23 21 21 21 20 19
134 130 130 125 115 110 106 102 100 99 97 95 91 87 85 81 77 71 66 64 61 61 61 58 53 51 49 48 51 54 54 53 53 53 52 49 47 45 42 39 36 34 33 30 29 29 31 34 38 39 39 36 34 33 27 21 20 21 19 20 23 24 25
135 132 128 122 114 111 108 106 106 104 99 94 90 87 83 78 73 69 65 63 61 60 61 60 57 56 55 53 54 56 56 54 54 53 51 49 46 44 41 39 36 35 34 32 31 32 33 35 38 41 41 40 39 38 33 26 24 24 21 20 23 25 26
134 131 126 120 116 113 110 109 107 103 97 91 88 85 80 76 73 71 69 67 65 64 65 65 63 61 59 57 56 58 58 56 54 52 51 49 46 43 41 39 36 35 35 35 36 38 38 39 41 43 44 45 45 44 41 37 35 33 31 28 26 26 27
133 130 125 121 119 114 111 110 107 101 95 90 88 85 81 79 78 77 75 72 71 70 68 67 65 63 61 59 57 57 57 56 54 53 52 50 47 44 43 41 38 36 36 38 39 41 43 44 44 46 47 47 46 46 45 43 41 39 38 36 31 30 31
132 129 125 122 120 116 114 113 106 99 96 93 90 88 86 84 83 81 78 75 72 70 67 64 62 60 58 57 55 55 55 54 53 52 52 51 48 46 45 45 43 40 39 41 42 44 45 47 47 48 48 47 46 46 47 46 45 43 42 40 35 33 34
133 129 125 123 121 118 117 114 106 102 100 97 95 93 90 88 84 81 79 75 72 69 65 62 60 58 56 55 54 54 53 52 51 50 50 51 49 47 47 49 47 45 43 45 46 46 47 47 48 49 47 46 45 46 47 47 46 46 45 43 40 37 35
135 130 127 126 124 119 117 114 109 106 104 101 100 96 92 88 83 82 81 77 73 70 66 64 61 58 57 56 55 54 53 52 51 50 50 52 51 48 49 49 49 48 49 50 50 50 49 49 50 50 49 47 47 47 47 47 47 47 47 45 43 42 37